Location: Saint-Palais-sur-Mer
(45.6429°N, 1.0859°W)
Time: 20:34:01
(UTC+01:00)

BlueWalker 3 - Visible Passes

Search period start: 18 January 2026 00:00
Search period end: 28 January 2026 00:00
Orbit: 451 x 463 km, 53.2° (Epoch: 18 January)

Date Brightness Start Highest point End Pass type
(mag) Time Alt. Az. Time Alt. Az. Time Alt. Az.
18 Jan 4.5 20:06:24 10° S 20:06:33 11° S 20:06:33 11° S visible
19 Jan 3.8 19:31:34 10° S 19:33:07 16° SSE 19:33:07 16° SSE visible
20 Jan 3.9 18:57:00 10° SSE 18:58:38 13° SE 18:59:36 12° ESE visible
20 Jan 4.1 20:32:02 10° SW 20:33:22 21° SW 20:33:22 21° SW visible
21 Jan 2.1 19:56:43 10° SW 19:59:46 56° S 19:59:46 56° S visible
22 Jan 2.0 19:21:25 10° SW 19:24:53 50° SE 19:26:03 34° E visible
22 Jan 4.9 20:59:09 10° W 20:59:48 14° W 20:59:48 14° W visible
23 Jan 2.5 18:46:11 10° SSW 18:49:31 39° SE 18:52:17 14° ENE visible
23 Jan 3.3 20:23:36 10° W 20:26:01 33° WNW 20:26:01 33° WNW visible
24 Jan 2.3 19:48:03 10° WSW 19:51:32 49° NNW 19:52:10 43° N visible
25 Jan 2.1 19:12:33 10° WSW 19:16:04 59° NNW 19:18:15 21° NE visible
25 Jan 4.6 20:51:04 10° WNW 20:51:59 15° NW 20:51:59 15° NW visible
26 Jan 1.9 18:37:02 10° WSW 18:40:36 72° NNW 18:44:10 10° NE visible
26 Jan 3.5 20:15:27 10° WNW 20:18:01 25° NNW 20:18:01 25° NNW visible
27 Jan 3.2 19:39:49 10° WNW 19:42:57 28° NNW 19:44:01 24° NNE visible
